THOR ALTAIR DEB, 2177

Orbit data source: Space-Track

THOR ALTAIR DEB, 2177 is space debris in SSO originally from a launch on Thu, 31 Mar 1966 UTC launched from the Air Force Western Test Range (AFWTR). Debris objects in space refer to the collection of defunct objects orbiting the Earth. Examples of debris include non-operational satellites, rocket bodies, and fragments generated from explosions, collisions, or faulty payload assembly.

Loading next visibility...
Identifier
2177, 1966-026D
Orbit
SSO
Country
Flag of USUS
Related business
Manufacturer
Unknown
Mission
Spacecraft
Bus & Motor
Unknown
Mass
Unknown
Launch date (UTC)
1966-03-31 (59 years ago)
Launch vehicle
Unknown
Launch site
Air Force Western Test Range (AFWTR)
Object type
Payload
Rocket body
Debris
Shape & HBR
Unknown
Radar Cross Section
Small (<0.1 m²)

Expand to show TLE details & history
Last TLE update: 2 days ago

TLE from 2 days ago
0 THOR ALTAIR DEB
1 02177U 66026D   25259.80946994  .00003144  00000-0  38525-3 0  9997
2 02177  98.9405 215.2975 0134610 130.6229 230.6779 14.77762602122420
Epoch: 2025-09-16T19:25Z
TLE epoch observation values (Epoch: 2025-09-16T19:25:38.202Z)
Latitude
-0.00001°
Longitude
-72.10612°
Altitude
699.98 km
Speed
7.474 km/s
True Right ascension
14h 21m 11s
True Declination
0° 00' 00"
Sunlit
Object was in daylight at epoch
Visualization orbit readout
Latitude
Unknown
Longitude
Unknown
Altitude
Unknown
Speed
Unknown
Apparent Right ascension
Unknown
Apparent Declination
Unknown
Sunlit
N/A
Visualization observer readout
Local Sidereal Time
03:23:20
Azimuth
Unknown
Elevation
Unknown
Doppler factor
Unknown
Orbital elements
Apogee altitude
727.871 km
Perigee altitude
539.105 km
Semi-major axis
7,011.625 km
Eccentricity
0.01346
Inclination
98.9405°
RAAN
215.2975°
Arg. of periapsis
130.6229°
True anomaly
229.49729°
Mean anomaly
230.6779°
Eccentric anomaly
230.08634°
Mean motion
3.69671 °/min
Orbital period
97.38 mins
BSTAR
0.00038525
Loading maneuver chart data...
Computing Atmospheric mass density...
Loading historical data...
Loading historical data...
Loading historical data...
Loading historical data...
Loading historical data...
Loading historical data...
Loading historical data...

Documentation

Showing up to 5 results
|